Regional Weather Roundup
Issued by NWS

Home | Current Version | Previous Version | Graphics & Text | Print | Product List | Glossary On
Versions: 1 2 3 4 5 6 7 8 9 10 11 12 13 14 15 16 17 18 19 20 21 22 23 24 25 26 27 28 29 30 31 32 33 34 35 36 37 38 39 40 41 42 43 44 45 46 47 48 49 50
912
ASUS44 KJAN 242310
RWRMS

MISSISSIPPI HOURLY WEATHER ROUNDUP
NATIONAL WEATHER SERVICE JACKSON MS
600 PM CDT FRI OCT 24 2014

NOTE: "FAIR: INDICATES FEW OR NO CLOUDS BELOW 12,000 FEET WITH NO
SIGNIFICANT WEATHER AND/OR OBSTRUCTIONS TO VISIBILITY.

MSZ001>002-007>008-010>013-018>021-025>028-034>036-250000-
NORTHWEST MISSISSIPPI

CITY           SKY/WX    TMP DP  RH WIND       PRES   REMARKS
CLARKSDALE     FAIR      72  55  56 CALM      30.09F
CLEVELAND      FAIR      70  56  61 N3        30.09S
GREENWOOD      CLEAR     67  50  54 N3        30.09R
GREENVILLE     CLEAR     70  51  51 N5        30.10R
GRENADA          N/A    N/A N/A N/A MISG        N/A
OLIVE BRANCH   PTCLDY    66  54  63 CALM      30.09R
OXFORD         FAIR      66  55  68 CALM      30.10S
TUNICA         CLEAR     70  54  56 W3        30.09S
$$

MSZ003>006-009-014>017-022>024-029>033-037>039-250000-
NORTHEAST MISSISSIPPI

CITY           SKY/WX    TMP DP  RH WIND       PRES   REMARKS
COLUMBUS AFB   CLEAR     67  46  48 N5        30.07S
CORINTH        FAIR      66  54  63 W5        30.07S
GOLDN TRIANGLE CLEAR     70  43  37 NW7       30.07R
STARKVILLE     FAIR      64  50  59 CALM      30.07S
TUPELO         CLEAR     67  49  52 CALM      30.07S
$$

MSZ040-058-250000-
CENTRAL MISSISSIPPI

CITY           SKY/WX    TMP DP  RH WIND       PRES   REMARKS
JACKSON INTL   PTCLDY    70  46  42 NW5       30.08S
JACKSON HAWKNS CLEAR     69  45  41 NW6       30.09S
MERIDIAN KEY   CLEAR     65  49  56 N5        30.06R
MERIDIAN NAS   CLEAR     70  43  37 N5        30.06S
RAYMOND        FAIR      64  59  82 CALM      30.09S
VICKSBURG      CLEAR     63  53  70 NW3       30.09S
$$

MSZ059>079-250000-
SOUTH MISSISSIPPI

CITY           SKY/WX    TMP DP  RH WIND       PRES   REMARKS
BROOKHAVEN     FAIR      70  46  43 NW3       30.09F
COLUMBIA         N/A    N/A N/A N/A MISG        N/A
HATTIESBURG    CLEAR     72  46  39 N6        30.06S
MCCOMB         CLEAR     71  45  39 NW7       30.07S
NATCHEZ        CLEAR     68  48  49 CALM      30.10F
PINE BELT      CLEAR     70  45  40 NW3       30.08S
$$

MSZ080>082-250000-
COASTAL MISSISSIPPI

CITY           SKY/WX    TMP DP  RH WIND       PRES   REMARKS
BAY ST LOUIS   CLEAR     70  45  40 N3        30.04R
BILOXI         CLEAR     73  48  40 N6        30.03R
PASCAGOULA     CLEAR     71  47  42 NW5       30.03R
GULFPORT       CLEAR     73  46  38 N7        30.03R
$$



USA.gov is the U.S. government's official web portal to all federal, state and local government web resources and services.